Location: Unspecified
(40.7945°N, 0.0000°E)
Time: 02:28:41
(UTC+00:00)

Altair - Pass Details

Date: 22 January 2021
Orbit: 1501 x 1682 km, 47.2° (Epoch: 01 March)

Event Time Altitude Azimuth Distance (km) Brightness Sun altitude
Rises 12:03:35 0° 298° (WNW) 4,937 9.9 29.6°
Reaches altitude 10° 12:06:50 10° 295° (WNW) 3,939 9.5 29.6°
Maximum altitude 12:16:39 58° 220° (SW) 1,868 9.0 29.6°
Drops below altitude 10° 12:26:09 10° 144° (SE) 3,817 10.4 29.6°
Sets 12:29:16 0° 140° (SE) 4,776 10.7 29.5°
